User: anonymous   Login
Location: Haliburton Scout Reserve
(45.0900°N, 78.3200°W)
Time: 22:24:22
(UTC-04:00)
Language:

KAITUO 1B - Orbit

View from above orbital plane
View from above orbital plane
View from above satellite
View from above satellite

Ground track
Ground track

The orbit data is extracted from the following two-line orbital elements,

1 40912U 15049P   22138.50209566  .00014524  00000-0  57579-3 0  9996
2 40912  97.4379 150.0596 0014323  55.1160  68.4411 15.25399446369183
Epoch (UTC): 18 May 2022 12:03:01
Eccentricity: 0.0014323
inclination: 97.4379°
perigee height: 480 km
apogee height: 499 km
right ascension of ascending node: 150.0596°
argument of perigee: 55.1160°
revolutions per day: 15.25399446
mean anomaly at epoch: 68.4411°
orbit number at epoch: 36918

The dashed part of the orbit path shows where the satellite is in the earth's shadow,  

DLR